Time,TemperatureF,DewpointF,PressureIn,WindDirection,WindDirectionDegrees,WindSpeedMPH,WindSpeedGustMPH,Humidity,HourlyPrecipIn,Conditions,Clouds,dailyrainin,SoftwareType,DateUTC
2013-05-14 00:00:00,60.3,44.6,30.03,North,0,0.0,0.0,56,0.00,,,0.00,WUHU216HW,2013-05-14 05:00:00,
2013-05-14 00:05:00,60.3,44.6,30.03,North,0,0.0,0.0,56,0.00,,,0.00,WUHU216HW,2013-05-14 05:05:00,
2013-05-14 00:30:00,59.4,45.1,30.02,North,0,0.0,0.0,59,0.00,,,0.00,WUHU216HW,2013-05-14 05:30:00,
2013-05-14 00:35:00,59.4,45.1,30.02,North,0,0.0,0.0,59,0.00,,,0.00,WUHU216HW,2013-05-14 05:35:00,
2013-05-14 01:00:00,58.9,45.0,30.00,North,0,0.0,0.0,60,0.00,,,0.00,WUHU216HW,2013-05-14 06:00:00,
2013-05-14 01:05:00,58.9,45.0,30.00,North,0,0.0,0.0,60,0.00,,,0.00,WUHU216HW,2013-05-14 06:05:00,
2013-05-14 01:30:00,58.5,45.1,30.00,North,0,0.0,0.0,61,0.00,,,0.00,WUHU216HW,2013-05-14 06:30:00,
2013-05-14 01:35:00,58.5,45.1,30.00,North,0,0.0,0.0,61,0.00,,,0.00,WUHU216HW,2013-05-14 06:35:00,
2013-05-14 01:59:00,58.3,45.7,29.99,North,0,0.0,0.0,63,0.00,,,0.00,WUHU216HW,2013-05-14 06:59:00,
2013-05-14 02:01:00,58.3,45.7,29.99,North,0,0.0,0.0,63,0.00,,,0.00,WUHU216HW,2013-05-14 07:01:00,
2013-05-14 02:06:00,58.3,45.7,29.99,North,0,0.0,0.0,63,0.00,,,0.00,WUHU216HW,2013-05-14 07:06:00,
2013-05-14 02:29:00,57.8,45.6,29.98,North,0,0.0,0.0,64,0.00,,,0.00,WUHU216HW,2013-05-14 07:29:00,
2013-05-14 02:30:00,57.8,45.6,29.98,North,0,0.0,0.0,64,0.00,,,0.00,WUHU216HW,2013-05-14 07:30:00,
2013-05-14 02:35:00,57.8,45.6,29.98,North,0,0.0,0.0,64,0.00,,,0.00,WUHU216HW,2013-05-14 07:35:00,
2013-05-14 02:59:00,57.6,45.9,29.97,North,0,0.0,0.0,65,0.00,,,0.00,WUHU216HW,2013-05-14 07:59:00,
2013-05-14 03:00:00,57.6,45.9,29.97,North,0,0.0,0.0,65,0.00,,,0.00,WUHU216HW,2013-05-14 08:00:00,
2013-05-14 03:05:00,57.6,45.9,29.97,North,0,0.0,0.0,65,0.00,,,0.00,WUHU216HW,2013-05-14 08:05:00,
2013-05-14 03:29:00,57.2,46.4,29.96,North,0,0.0,0.0,67,0.00,,,0.00,WUHU216HW,2013-05-14 08:29:00,
2013-05-14 03:30:00,57.2,46.4,29.96,North,0,0.0,0.0,67,0.00,,,0.00,WUHU216HW,2013-05-14 08:30:00,
2013-05-14 03:35:00,57.2,46.4,29.96,North,0,0.0,0.0,67,0.00,,,0.00,WUHU216HW,2013-05-14 08:35:00,
2013-05-14 03:59:00,56.7,46.3,29.96,North,0,0.0,0.0,68,0.00,,,0.00,WUHU216HW,2013-05-14 08:59:00,
2013-05-14 04:00:00,56.7,46.3,29.96,North,0,0.0,0.0,68,0.00,,,0.00,WUHU216HW,2013-05-14 09:00:00,
2013-05-14 04:05:00,56.7,46.3,29.96,North,0,0.0,0.0,68,0.00,,,0.00,WUHU216HW,2013-05-14 09:05:00,
2013-05-14 04:29:00,56.2,46.2,29.95,North,0,0.0,0.0,69,0.00,,,0.00,WUHU216HW,2013-05-14 09:29:00,
2013-05-14 04:30:00,56.2,46.2,29.95,North,0,0.0,0.0,69,0.00,,,0.00,WUHU216HW,2013-05-14 09:30:00,
2013-05-14 04:35:00,56.2,46.2,29.95,North,0,0.0,0.0,69,0.00,,,0.00,WUHU216HW,2013-05-14 09:35:00,
2013-05-14 04:59:00,55.8,46.5,29.95,North,0,0.0,0.0,71,0.00,,,0.00,WUHU216HW,2013-05-14 09:59:00,
2013-05-14 05:00:00,55.8,46.5,29.95,North,0,0.0,0.0,71,0.00,,,0.00,WUHU216HW,2013-05-14 10:00:00,
2013-05-14 05:05:00,55.8,46.5,29.95,North,0,0.0,0.0,71,0.00,,,0.00,WUHU216HW,2013-05-14 10:05:00,
2013-05-14 05:29:00,55.6,47.1,29.94,North,0,0.0,0.0,73,0.00,,,0.00,WUHU216HW,2013-05-14 10:29:00,
2013-05-14 05:30:00,55.6,47.1,29.94,North,0,0.0,0.0,73,0.00,,,0.00,WUHU216HW,2013-05-14 10:30:00,
2013-05-14 05:35:00,55.6,47.1,29.94,North,0,0.0,0.0,73,0.00,,,0.00,WUHU216HW,2013-05-14 10:35:00,
2013-05-14 05:59:00,55.4,47.3,29.94,North,0,0.0,0.0,74,0.00,,,0.00,WUHU216HW,2013-05-14 10:59:00,
2013-05-14 06:00:00,55.4,47.3,29.94,North,0,0.0,0.0,74,0.00,,,0.00,WUHU216HW,2013-05-14 11:00:00,
2013-05-14 06:05:00,55.4,47.3,29.94,North,0,0.0,0.0,74,0.00,,,0.00,WUHU216HW,2013-05-14 11:05:00,
2013-05-14 06:29:00,55.8,48.0,29.94,North,0,0.0,0.0,75,0.00,,,0.00,WUHU216HW,2013-05-14 11:29:00,
2013-05-14 06:30:00,55.8,48.0,29.94,North,0,0.0,0.0,75,0.00,,,0.00,WUHU216HW,2013-05-14 11:30:00,
2013-05-14 06:35:00,55.8,48.0,29.94,North,0,0.0,0.0,75,0.00,,,0.00,WUHU216HW,2013-05-14 11:35:00,
2013-05-14 07:00:00,56.2,48.6,29.94,North,0,0.0,0.0,76,0.00,,,0.00,WUHU216HW,2013-05-14 12:00:00,
2013-05-14 07:05:00,56.2,48.6,29.94,North,0,0.0,0.0,76,0.00,,,0.00,WUHU216HW,2013-05-14 12:05:00,
2013-05-14 07:30:00,58.0,50.8,29.93,North,0,0.0,0.0,77,0.00,,,0.00,WUHU216HW,2013-05-14 12:30:00,
2013-05-14 07:35:00,58.0,50.8,29.93,North,0,0.0,0.0,77,0.00,,,0.00,WUHU216HW,2013-05-14 12:35:00,
2013-05-14 08:00:00,62.3,54.2,29.93,North,0,0.0,0.0,75,0.00,,,0.00,WUHU216HW,2013-05-14 13:00:00,
2013-05-14 08:05:00,62.3,54.2,29.93,North,0,0.0,0.0,75,0.00,,,0.00,WUHU216HW,2013-05-14 13:05:00,
2013-05-14 08:30:00,66.1,56.0,29.92,North,0,0.0,0.0,70,0.00,,,0.00,WUHU216HW,2013-05-14 13:30:00,
2013-05-14 08:35:00,66.1,56.0,29.92,North,0,0.0,0.0,70,0.00,,,0.00,WUHU216HW,2013-05-14 13:35:00,
2013-05-14 09:00:00,70.2,56.6,29.92,North,0,0.0,0.0,62,0.00,,,0.00,WUHU216HW,2013-05-14 14:00:00,
2013-05-14 09:05:00,70.2,56.6,29.92,North,0,0.0,0.0,62,0.00,,,0.00,WUHU216HW,2013-05-14 14:05:00,
2013-05-14 09:30:00,74.9,58.2,29.91,North,0,0.0,0.0,56,0.00,,,0.00,WUHU216HW,2013-05-14 14:30:00,
2013-05-14 09:35:00,74.9,58.2,29.91,North,0,0.0,0.0,56,0.00,,,0.00,WUHU216HW,2013-05-14 14:35:00,
2013-05-14 10:00:00,78.3,58.2,29.91,North,0,0.0,0.0,50,0.00,,,0.00,WUHU216HW,2013-05-14 15:00:00,
2013-05-14 10:05:00,78.3,58.2,29.91,North,0,0.0,0.0,50,0.00,,,0.00,WUHU216HW,2013-05-14 15:05:00,
2013-05-14 10:30:00,80.6,57.2,29.90,North,0,0.0,0.0,45,0.00,,,0.00,WUHU216HW,2013-05-14 15:30:00,
2013-05-14 10:35:00,80.6,57.2,29.90,North,0,0.0,0.0,45,0.00,,,0.00,WUHU216HW,2013-05-14 15:35:00,
2013-05-14 11:00:00,83.7,58.1,29.90,North,0,0.0,0.0,42,0.00,,,0.00,WUHU216HW,2013-05-14 16:00:00,
2013-05-14 11:05:00,83.7,58.1,29.90,North,0,0.0,0.0,42,0.00,,,0.00,WUHU216HW,2013-05-14 16:05:00,
2013-05-14 11:30:00,86.0,59.7,29.90,North,0,0.0,0.0,41,0.00,,,0.00,WUHU216HW,2013-05-14 16:30:00,
2013-05-14 11:35:00,86.0,59.7,29.90,North,0,0.0,0.0,41,0.00,,,0.00,WUHU216HW,2013-05-14 16:35:00,
2013-05-14 12:00:00,88.0,59.2,29.90,North,0,0.0,0.0,38,0.00,,,0.00,WUHU216HW,2013-05-14 17:00:00,
2013-05-14 12:05:00,88.0,59.2,29.90,North,0,0.0,0.0,38,0.00,,,0.00,WUHU216HW,2013-05-14 17:05:00,
2013-05-14 12:30:00,89.6,60.5,29.88,North,0,0.0,0.0,38,0.00,,,0.00,WUHU216HW,2013-05-14 17:30:00,
2013-05-14 12:35:00,89.6,60.5,29.88,North,0,0.0,0.0,38,0.00,,,0.00,WUHU216HW,2013-05-14 17:35:00,
2013-05-14 13:00:00,90.4,59.6,29.88,North,0,0.0,0.0,36,0.00,,,0.00,WUHU216HW,2013-05-14 18:00:00,
2013-05-14 13:05:00,90.4,59.6,29.88,North,0,0.0,0.0,36,0.00,,,0.00,WUHU216HW,2013-05-14 18:05:00,
2013-05-14 13:30:00,91.3,59.6,29.87,North,0,0.0,0.0,35,0.00,,,0.00,WUHU216HW,2013-05-14 18:30:00,
2013-05-14 13:35:00,91.3,59.6,29.87,North,0,0.0,0.0,35,0.00,,,0.00,WUHU216HW,2013-05-14 18:35:00,
2013-05-14 14:00:00,91.4,57.4,29.86,North,0,0.0,0.0,32,0.00,,,0.00,WUHU216HW,2013-05-14 19:00:00,
2013-05-14 14:05:00,91.4,57.4,29.86,North,0,0.0,0.0,32,0.00,,,0.00,WUHU216HW,2013-05-14 19:05:00,
2013-05-14 14:30:00,91.8,59.3,29.86,North,0,0.0,0.0,34,0.00,,,0.00,WUHU216HW,2013-05-14 19:30:00,
2013-05-14 14:35:00,91.8,59.3,29.86,North,0,0.0,0.0,34,0.00,,,0.00,WUHU216HW,2013-05-14 19:35:00,
2013-05-14 15:00:00,92.2,59.6,29.86,North,0,0.0,0.0,34,0.00,,,0.00,WUHU216HW,2013-05-14 20:00:00,
2013-05-14 15:05:00,92.2,59.6,29.86,North,0,0.0,0.0,34,0.00,,,0.00,WUHU216HW,2013-05-14 20:05:00,
2013-05-14 15:30:00,92.5,59.9,29.85,North,0,0.0,0.0,34,0.00,,,0.00,WUHU216HW,2013-05-14 20:30:00,
2013-05-14 15:35:00,92.5,59.9,29.85,North,0,0.0,0.0,34,0.00,,,0.00,WUHU216HW,2013-05-14 20:35:00,
2013-05-14 16:00:00,92.2,60.4,29.84,North,0,0.0,0.0,35,0.00,,,0.00,WUHU216HW,2013-05-14 21:00:00,
2013-05-14 16:05:00,92.2,60.4,29.84,North,0,0.0,0.0,35,0.00,,,0.00,WUHU216HW,2013-05-14 21:05:00,
2013-05-14 16:30:00,92.2,58.0,29.84,North,0,0.0,0.0,32,0.00,,,0.00,WUHU216HW,2013-05-14 21:30:00,
2013-05-14 16:35:00,92.2,58.0,29.84,North,0,0.0,0.0,32,0.00,,,0.00,WUHU216HW,2013-05-14 21:35:00,
2013-05-14 16:59:00,91.8,58.5,29.83,North,0,0.0,0.0,33,0.00,,,0.00,WUHU216HW,2013-05-14 21:59:00,
2013-05-14 17:00:00,91.8,58.5,29.83,North,0,0.0,0.0,33,0.00,,,0.00,WUHU216HW,2013-05-14 22:00:00,
2013-05-14 17:05:00,91.8,58.5,29.83,North,0,0.0,0.0,33,0.00,,,0.00,WUHU216HW,2013-05-14 22:05:00,
2013-05-14 17:30:00,90.7,57.5,29.82,North,0,0.0,0.0,33,0.00,,,0.00,WUHU216HW,2013-05-14 22:30:00,
2013-05-14 17:35:00,90.7,57.5,29.82,North,0,0.0,0.0,33,0.00,,,0.00,WUHU216HW,2013-05-14 22:35:00,
2013-05-14 17:59:00,90.0,56.1,29.82,North,0,0.0,0.0,32,0.00,,,0.00,WUHU216HW,2013-05-14 22:59:00,
2013-05-14 18:00:00,90.0,56.1,29.82,North,0,0.0,0.0,32,0.00,,,0.00,WUHU216HW,2013-05-14 23:00:00,
2013-05-14 18:05:00,90.0,56.1,29.82,North,0,0.0,0.0,32,0.00,,,0.00,WUHU216HW,2013-05-14 23:05:00,
2013-05-14 18:30:00,88.6,55.6,29.81,North,0,0.0,0.0,33,0.00,,,0.00,WUHU216HW,2013-05-14 23:30:00,
2013-05-14 18:35:00,88.6,55.6,29.81,North,0,0.0,0.0,33,0.00,,,0.00,WUHU216HW,2013-05-14 23:35:00,
2013-05-14 19:00:00,87.1,54.4,29.81,North,0,0.0,0.0,33,0.00,,,0.00,WUHU216HW,2013-05-15 00:00:00,
2013-05-14 19:05:00,87.1,54.4,29.81,North,0,0.0,0.0,33,0.00,,,0.00,WUHU216HW,2013-05-15 00:05:00,
2013-05-14 19:30:00,85.3,54.5,29.82,North,0,0.0,0.0,35,0.00,,,0.00,WUHU216HW,2013-05-15 00:30:00,
2013-05-14 19:35:00,85.3,54.5,29.82,North,0,0.0,0.0,35,0.00,,,0.00,WUHU216HW,2013-05-15 00:35:00,
2013-05-14 20:00:00,83.9,52.4,29.82,North,0,0.0,0.0,34,0.00,,,0.00,WUHU216HW,2013-05-15 01:00:00,
2013-05-14 20:05:00,83.9,52.4,29.82,North,0,0.0,0.0,34,0.00,,,0.00,WUHU216HW,2013-05-15 01:05:00,
2013-05-14 20:30:00,82.3,53.3,29.83,North,0,0.0,0.0,37,0.00,,,0.00,WUHU216HW,2013-05-15 01:30:00,
2013-05-14 20:35:00,82.3,53.3,29.83,North,0,0.0,0.0,37,0.00,,,0.00,WUHU216HW,2013-05-15 01:35:00,
2013-05-14 21:00:00,81.4,51.7,29.84,North,0,0.0,0.0,36,0.00,,,0.00,WUHU216HW,2013-05-15 02:00:00,
2013-05-14 21:05:00,81.4,51.7,29.84,North,0,0.0,0.0,36,0.00,,,0.00,WUHU216HW,2013-05-15 02:05:00,
2013-05-14 21:30:00,79.6,51.7,29.85,North,0,0.0,0.0,38,0.00,,,0.00,WUHU216HW,2013-05-15 02:30:00,
2013-05-14 21:35:00,79.6,51.7,29.85,North,0,0.0,0.0,38,0.00,,,0.00,WUHU216HW,2013-05-15 02:35:00,
2013-05-14 21:59:00,78.8,51.0,29.86,North,0,0.0,0.0,38,0.00,,,0.00,WUHU216HW,2013-05-15 02:59:00,
2013-05-14 22:00:00,78.8,51.0,29.86,North,0,0.0,0.0,38,0.00,,,0.00,WUHU216HW,2013-05-15 03:00:00,
2013-05-14 22:05:00,78.8,51.0,29.86,North,0,0.0,0.0,38,0.00,,,0.00,WUHU216HW,2013-05-15 03:05:00,
2013-05-14 22:30:00,78.5,51.5,29.87,North,0,0.0,0.0,39,0.00,,,0.00,WUHU216HW,2013-05-15 03:30:00,
2013-05-14 22:35:00,78.5,51.5,29.87,North,0,0.0,0.0,39,0.00,,,0.00,WUHU216HW,2013-05-15 03:35:00,
2013-05-14 22:59:00,76.1,51.4,29.87,North,0,0.0,0.0,42,0.00,,,0.00,WUHU216HW,2013-05-15 03:59:00,
2013-05-14 23:00:00,76.1,51.4,29.87,North,0,0.0,0.0,42,0.00,,,0.00,WUHU216HW,2013-05-15 04:00:00,
2013-05-14 23:01:00,76.1,51.4,29.87,North,0,0.0,0.0,42,0.00,,,0.00,WUHU216HW,2013-05-15 04:01:00,
2013-05-14 23:06:00,76.1,51.4,29.87,North,0,0.0,0.0,42,0.00,,,0.00,WUHU216HW,2013-05-15 04:06:00,
2013-05-14 23:30:00,74.9,51.4,29.87,North,0,0.0,0.0,44,0.00,,,0.00,WUHU216HW,2013-05-15 04:30:00,
2013-05-14 23:36:00,74.9,51.4,29.87,North,0,0.0,0.0,44,0.00,,,0.00,WUHU216HW,2013-05-15 04:36:00,
2013-05-14 23:59:00,74.0,51.2,29.88,North,0,0.0,0.0,45,0.00,,,0.00,WUHU216HW,2013-05-15 04:59:00,